TimeEDT,TemperatureF,Dew PointF,Humidity,Sea Level PressureIn,VisibilityMPH,Wind Direction,Wind SpeedMPH,Gust SpeedMPH,PrecipitationIn,Events,Conditions,WindDirDegrees,DateUTC
12:51 AM,14.0,-16.6,25,-9999,100.0,SW,8.1,-,N/A,,Overcast,230,2012-03-31 04:51:00
1:51 AM,14.0,-20.2,21,-9999,100.0,SW,5.8,-,N/A,,Mostly Cloudy,230,2012-03-31 05:51:00
2:58 AM,12.2,-16.6,27,-9999,120.0,SSW,10.4,-,N/A,,Mostly Cloudy,210,2012-03-31 06:58:00
3:55 AM,12.2,-11.2,34,-9999,120.0,WSW,16.1,-,N/A,,Overcast,240,2012-03-31 07:55:00
4:58 AM,12.2,-9.4,38,-9999,120.0,WSW,21.9,-,N/A,,Overcast,250,2012-03-31 08:58:00
5:53 AM,12.2,-14.8,29,-9999,120.0,WSW,20.7,-,N/A,,Overcast,250,2012-03-31 09:53:00
6:52 AM,12.2,-5.8,45,-9999,120.0,West,17.3,-,N/A,,Overcast,260,2012-03-31 10:52:00
7:50 AM,14.0,-4.0,45,-9999,120.0,West,18.4,-,N/A,,Overcast,270,2012-03-31 11:50:00
8:52 AM,14.0,-0.4,53,-9999,120.0,West,18.4,-,N/A,,Overcast,270,2012-03-31 12:52:00
9:52 AM,15.8,1.4,53,-9999,120.0,WNW,12.7,-,N/A,,Overcast,290,2012-03-31 13:52:00
10:52 AM,15.8,-4.0,41,-9999,120.0,NNW,10.4,-,N/A,,Overcast,340,2012-03-31 14:52:00
11:52 AM,15.8,8.6,73,-9999,120.0,North,4.6,-,N/A,,Mostly Cloudy,360,2012-03-31 15:52:00
12:54 PM,17.6,10.4,73,-9999,120.0,North,1.2,-,N/A,,Mostly Cloudy,350,2012-03-31 16:54:00
1:55 PM,17.6,10.4,73,-9999,120.0,SE,2.3,-,N/A,,Mostly Cloudy,140,2012-03-31 17:55:00
2:49 PM,17.6,10.4,73,-9999,120.0,West,5.8,-,N/A,,Mostly Cloudy,280,2012-03-31 18:49:00
3:55 PM,17.6,12.2,79,-9999,120.0,West,10.4,-,N/A,,Partly Cloudy,260,2012-03-31 19:55:00
4:58 PM,17.6,8.6,68,-9999,120.0,NNW,3.5,-,N/A,,Partly Cloudy,340,2012-03-31 20:58:00
5:52 PM,17.6,10.4,73,-9999,120.0,WNW,9.2,-,N/A,,Partly Cloudy,300,2012-03-31 21:52:00
6:52 PM,17.6,6.8,63,-9999,120.0,NW,5.8,-,N/A,,Partly Cloudy,310,2012-03-31 22:52:00
7:52 PM,15.8,5.0,62,-9999,120.0,West,4.6,-,N/A,,Partly Cloudy,280,2012-03-31 23:52:00
8:51 PM,15.8,6.8,68,-9999,120.0,WNW,6.9,-,N/A,,Partly Cloudy,290,2012-04-01 00:51:00
9:57 PM,15.8,5.0,62,-9999,120.0,West,12.7,-,N/A,,Clear,260,2012-04-01 01:57:00
10:56 PM,15.8,6.8,68,-9999,120.0,West,12.7,-,N/A,,Clear,270,2012-04-01 02:56:00
11:58 PM,15.8,5.0,62,-9999,120.0,West,17.3,-,N/A,,Clear,270,2012-04-01 03:58:00